Location: Bazinghen
(50.8246°N, 1.6616°E)
Time: 17:52:05
(UTC+00:00)

Cosmos 2278 - Pass Details

Date: 09 April 2020
Orbit: 840 x 852 km, 71.1° (Epoch: 24 May)

Event Time Altitude Azimuth Distance (km) Brightness Sun altitude
Rises 22:05:32 0° 328° (NNW) 3,408 8.2 -26.6°
Reaches altitude 10° 22:08:00 10° 324° (NW) 2,470 7.1 -26.8°
Maximum altitude 22:13:32 57° 248° (WSW) 988 4.0 -27.2°
Enters shadow 22:13:50 56° 234° (SW) 995 3.9 -27.2°
